SIA132 WSSS-WMKP

Flight info

Callsign SIA132
Flight time N/A
Altitude 34000
Route AROSO3A AROSO Y513 KALIL Y504 BILIK Y506 TEPUS GORVU1E
Aircraft B738/M-SDE2E3FGHIRWXY/LB1

Departure

Time 2026-05-05 01:19
Airport Singapore Changi Airport (WSSS)

Arrival

Time N/A
Airport Penang International Airport (WMKP)
Time Latitude Longitude Altitude Speed Heading
2026-05-05 00:57 1.35322 103.99131 28 ft 0 kts 221°
2026-05-05 01:07 1.35330 103.99138 12 ft 4 kts 220°
2026-05-05 01:08 1.35351 103.99155 29 ft 4 kts 215°
2026-05-05 01:08 1.35374 103.99169 29 ft 4 kts 206°
2026-05-05 01:08 1.35399 103.99178 29 ft 4 kts 182°
2026-05-05 01:08 1.35418 103.99172 29 ft 2 kts 124°
2026-05-05 01:09 1.35421 103.99168 29 ft 0 kts 124°
2026-05-05 01:11 1.35416 103.99176 29 ft 4 kts 124°
2026-05-05 01:12 1.35394 103.99219 29 ft 10 kts 113°
2026-05-05 01:12 1.35366 103.99283 29 ft 10 kts 113°
2026-05-05 01:12 1.35320 103.99325 29 ft 10 kts 179°
2026-05-05 01:12 1.35238 103.99296 29 ft 16 kts 203°
2026-05-05 01:13 1.35119 103.99246 29 ft 21 kts 203°
2026-05-05 01:13 1.34975 103.99186 29 ft 23 kts 203°
2026-05-05 01:13 1.34832 103.99125 29 ft 22 kts 203°
2026-05-05 01:13 1.34694 103.99066 29 ft 21 kts 203°
2026-05-05 01:14 1.34558 103.99009 29 ft 21 kts 203°
2026-05-05 01:14 1.34426 103.98954 29 ft 20 kts 202°
2026-05-05 01:14 1.34299 103.98901 29 ft 20 kts 203°
2026-05-05 01:14 1.34175 103.98849 29 ft 19 kts 203°
2026-05-05 01:15 1.34055 103.98798 29 ft 18 kts 203°
2026-05-05 01:15 1.33939 103.98749 29 ft 18 kts 203°
2026-05-05 01:15 1.33828 103.98702 29 ft 17 kts 203°
2026-05-05 01:15 1.33720 103.98657 29 ft 16 kts 202°
2026-05-05 01:16 1.33616 103.98613 29 ft 16 kts 203°
2026-05-05 01:16 1.33516 103.98571 29 ft 15 kts 202°
2026-05-05 01:16 1.33421 103.98531 29 ft 15 kts 203°
2026-05-05 01:16 1.33329 103.98493 29 ft 14 kts 203°
2026-05-05 01:17 1.33241 103.98456 30 ft 13 kts 202°
2026-05-05 01:17 1.33158 103.98421 30 ft 13 kts 203°
2026-05-05 01:17 1.33076 103.98386 30 ft 13 kts 203°
2026-05-05 01:17 1.32997 103.98353 30 ft 12 kts 199°
2026-05-05 01:18 1.32934 103.98395 30 ft 12 kts 112°
2026-05-05 01:18 1.32902 103.98470 29 ft 12 kts 110°
2026-05-05 01:18 1.32947 103.98527 29 ft 11 kts 23°
2026-05-05 01:18 1.33028 103.98561 29 ft 17 kts 22°
2026-05-05 01:19 1.33299 103.98675 29 ft 78 kts 22°
2026-05-05 01:19 1.34013 103.98976 30 ft 143 kts 23°
2026-05-05 01:19 1.35075 103.99427 244 ft 177 kts 23°
2026-05-05 01:19 1.36175 103.99896 1114 ft 170 kts 23°
2026-05-05 01:20 1.37273 104.00370 1858 ft 175 kts 24°
2026-05-05 01:20 1.38478 104.00887 2161 ft 208 kts 23°
2026-05-05 01:20 1.39917 104.01493 2304 ft 236 kts 22°
2026-05-05 01:20 1.41463 104.02137 2779 ft 244 kts 22°
2026-05-05 01:21 1.43043 104.02797 3408 ft 247 kts 22°
2026-05-05 01:21 1.44626 104.03461 4065 ft 248 kts 22°
2026-05-05 01:21 1.46242 104.04139 4580 ft 261 kts 22°
2026-05-05 01:21 1.47975 104.04820 5093 ft 273 kts 14°
2026-05-05 01:22 1.49877 104.04883 5804 ft 277 kts 348°
2026-05-05 01:22 1.51679 104.04196 6574 ft 279 kts 333°
2026-05-05 01:22 1.53409 104.03274 7258 ft 284 kts 331°
2026-05-05 01:22 1.55125 104.02323 7945 ft 288 kts 330°
2026-05-05 01:23 1.56887 104.01345 8673 ft 291 kts 331°
2026-05-05 01:23 1.58671 104.00364 9371 ft 295 kts 331°
2026-05-05 01:23 1.60482 103.99374 10053 ft 298 kts 331°
2026-05-05 01:23 1.62346 103.98361 10399 ft 315 kts 331°
2026-05-05 01:24 1.64341 103.97281 10550 ft 337 kts 332°
2026-05-05 01:24 1.66468 103.96131 10696 ft 357 kts 332°
2026-05-05 01:24 1.68705 103.94923 10886 ft 372 kts 332°
2026-05-05 01:24 1.71007 103.93681 11327 ft 378 kts 332°
2026-05-05 01:25 1.73333 103.92426 11881 ft 381 kts 332°
2026-05-05 01:25 1.75604 103.91049 12451 ft 385 kts 321°
2026-05-05 01:25 1.77399 103.89060 13009 ft 388 kts 308°
2026-05-05 01:25 1.79033 103.86897 13559 ft 392 kts 307°
2026-05-05 01:26 1.80682 103.84704 14042 ft 396 kts 308°
2026-05-05 01:26 1.82351 103.82501 14542 ft 400 kts 308°
2026-05-05 01:26 1.84047 103.80283 15060 ft 402 kts 308°
2026-05-05 01:26 1.85741 103.78085 15563 ft 405 kts 308°
2026-05-05 01:27 1.87472 103.75843 16059 ft 409 kts 308°
2026-05-05 01:27 1.89223 103.73578 16535 ft 413 kts 308°
2026-05-05 01:27 1.90985 103.71298 17005 ft 416 kts 308°
2026-05-05 01:27 1.92757 103.68997 17494 ft 419 kts 308°
2026-05-05 01:28 1.94542 103.66678 17945 ft 422 kts 308°
2026-05-05 01:28 1.96337 103.64345 18367 ft 425 kts 308°
2026-05-05 01:28 1.98148 103.61990 18755 ft 428 kts 308°
2026-05-05 01:28 1.99968 103.59624 19158 ft 430 kts 308°
2026-05-05 01:29 2.01797 103.57247 19561 ft 433 kts 308°
2026-05-05 01:29 2.03637 103.54855 19947 ft 435 kts 308°
2026-05-05 01:29 2.05489 103.52449 20328 ft 437 kts 308°
2026-05-05 01:29 2.07347 103.50033 20689 ft 440 kts 308°
2026-05-05 01:30 2.09217 103.47602 21063 ft 442 kts 308°
2026-05-05 01:30 2.11098 103.45156 21429 ft 444 kts 308°
2026-05-05 01:30 2.12988 103.42699 21780 ft 447 kts 308°
2026-05-05 01:30 2.14734 103.40121 22080 ft 451 kts 297°
2026-05-05 01:31 2.15780 103.37158 22414 ft 454 kts 286°
2026-05-05 01:31 2.16634 103.34112 22748 ft 456 kts 286°
2026-05-05 01:31 2.17483 103.31049 23039 ft 459 kts 286°
2026-05-05 01:31 2.18347 103.27968 23340 ft 461 kts 286°
2026-05-05 01:32 2.19229 103.24884 23632 ft 463 kts 287°
2026-05-05 01:32 2.20116 103.21824 23887 ft 464 kts 287°
2026-05-05 01:32 2.21025 103.18720 24146 ft 466 kts 287°
2026-05-05 01:32 2.21940 103.15609 24393 ft 467 kts 287°
2026-05-05 01:33 2.22859 103.12486 24645 ft 469 kts 287°
2026-05-05 01:33 2.23783 103.09344 24890 ft 470 kts 287°
2026-05-05 01:33 2.24708 103.06197 25124 ft 472 kts 287°
2026-05-05 01:33 2.25636 103.03039 25355 ft 474 kts 287°
2026-05-05 01:34 2.26565 102.99873 25587 ft 475 kts 287°
2026-05-05 01:34 2.27497 102.96696 25819 ft 477 kts 287°
2026-05-05 01:34 2.28432 102.93509 26046 ft 478 kts 287°
2026-05-05 01:34 2.29370 102.90313 26263 ft 480 kts 287°
2026-05-05 01:35 2.30313 102.87101 26476 ft 481 kts 287°
2026-05-05 01:35 2.31250 102.83884 26690 ft 483 kts 286°
2026-05-05 01:35 2.32172 102.80695 26901 ft 484 kts 286°
2026-05-05 01:35 2.33109 102.77452 27102 ft 486 kts 286°
2026-05-05 01:36 2.34057 102.74202 27305 ft 487 kts 286°
2026-05-05 01:36 2.35008 102.70953 27494 ft 488 kts 286°
2026-05-05 01:36 2.35967 102.67679 27681 ft 490 kts 286°
2026-05-05 01:36 2.36926 102.64405 27872 ft 491 kts 286°
2026-05-05 01:37 2.37885 102.61128 28063 ft 492 kts 286°
2026-05-05 01:37 2.38847 102.57838 28245 ft 493 kts 286°
2026-05-05 01:37 2.39812 102.54534 28410 ft 494 kts 286°
2026-05-05 01:37 2.40779 102.51225 28582 ft 496 kts 286°
2026-05-05 01:38 2.41745 102.47916 28753 ft 497 kts 286°
2026-05-05 01:38 2.42714 102.44598 28931 ft 498 kts 286°
2026-05-05 01:38 2.43685 102.41273 29155 ft 497 kts 286°
2026-05-05 01:38 2.44654 102.37956 29429 ft 496 kts 286°
2026-05-05 01:39 2.45710 102.34678 29694 ft 495 kts 291°
2026-05-05 01:39 2.47170 102.31562 29926 ft 495 kts 300°
2026-05-05 01:39 2.49046 102.28736 30132 ft 494 kts 307°
2026-05-05 01:39 2.51100 102.25981 30366 ft 493 kts 307°
2026-05-05 01:40 2.53171 102.23246 30627 ft 492 kts 307°
2026-05-05 01:40 2.55232 102.20521 30903 ft 490 kts 307°
2026-05-05 01:40 2.57276 102.17798 31176 ft 489 kts 307°
2026-05-05 01:40 2.59308 102.15068 31429 ft 488 kts 307°
2026-05-05 01:41 2.61324 102.12343 31682 ft 487 kts 307°
2026-05-05 01:41 2.63333 102.09616 31948 ft 486 kts 307°
2026-05-05 01:41 2.65333 102.06896 32248 ft 484 kts 307°
2026-05-05 01:41 2.67322 102.04191 32550 ft 482 kts 307°
2026-05-05 01:42 2.69308 102.01489 32811 ft 481 kts 307°
2026-05-05 01:42 2.71289 101.98795 33072 ft 480 kts 307°
2026-05-05 01:42 2.73268 101.96105 33368 ft 479 kts 307°
2026-05-05 01:42 2.75241 101.93424 33665 ft 477 kts 307°
2026-05-05 01:43 2.77207 101.90751 33896 ft 477 kts 307°
2026-05-05 01:43 2.79184 101.88064 33870 ft 480 kts 307°
2026-05-05 01:43 2.83113 101.82724 33879 ft 478 kts 307°
2026-05-05 01:44 2.87043 101.77381 33883 ft 475 kts 307°
2026-05-05 01:44 2.90954 101.72064 33880 ft 474 kts 307°
2026-05-05 01:45 2.94855 101.66759 33887 ft 473 kts 307°
2026-05-05 01:45 2.98755 101.61455 33889 ft 473 kts 307°
2026-05-05 01:46 3.02635 101.56177 33887 ft 474 kts 307°
2026-05-05 01:46 3.06548 101.50854 33889 ft 475 kts 307°
2026-05-05 01:47 3.10467 101.45522 33885 ft 476 kts 307°
2026-05-05 01:47 3.14398 101.40173 33892 ft 477 kts 307°
2026-05-05 01:48 3.18336 101.34812 33897 ft 478 kts 307°
2026-05-05 01:48 3.22279 101.29445 33903 ft 479 kts 307°
2026-05-05 01:49 3.26221 101.24078 33907 ft 479 kts 307°
2026-05-05 01:49 3.30165 101.18706 33912 ft 478 kts 307°
2026-05-05 01:50 3.34477 101.13731 33914 ft 476 kts 320°
2026-05-05 01:50 3.40017 101.10171 33912 ft 473 kts 336°
2026-05-05 01:51 3.46047 101.07533 33910 ft 473 kts 337°
2026-05-05 01:51 3.52077 101.04898 33909 ft 473 kts 337°
2026-05-05 01:52 3.58081 101.02208 33908 ft 472 kts 336°
2026-05-05 01:52 3.64074 100.99507 33909 ft 472 kts 336°
2026-05-05 01:53 3.70047 100.96827 33890 ft 461 kts 336°
2026-05-05 01:53 3.72925 100.95544 33890 ft 445 kts 336°
2026-05-05 01:53 3.75710 100.94304 33891 ft 431 kts 336°
2026-05-05 01:54 3.78403 100.93107 33893 ft 417 kts 336°
2026-05-05 01:54 3.80976 100.91961 33887 ft 404 kts 336°
2026-05-05 01:54 3.83506 100.90835 33886 ft 391 kts 337°
2026-05-05 01:54 3.85950 100.89746 33891 ft 378 kts 337°
2026-05-05 01:55 3.88313 100.88692 33883 ft 365 kts 337°
2026-05-05 01:55 3.90620 100.87664 33907 ft 363 kts 337°
2026-05-05 01:55 3.95331 100.85566 33925 ft 378 kts 337°
2026-05-05 01:56 4.00221 100.83387 33912 ft 388 kts 336°
2026-05-05 01:56 4.05146 100.81190 33884 ft 383 kts 337°
2026-05-05 01:57 4.09959 100.79042 33890 ft 377 kts 337°
2026-05-05 01:57 4.14786 100.76889 33891 ft 381 kts 337°
2026-05-05 01:58 4.19638 100.74724 33892 ft 382 kts 336°
2026-05-05 01:58 4.24437 100.72585 33878 ft 379 kts 336°
2026-05-05 01:59 4.29257 100.70441 33893 ft 379 kts 337°
2026-05-05 01:59 4.34090 100.68295 33889 ft 380 kts 337°
2026-05-05 02:00 4.38112 100.66511 33891 ft 380 kts 337°
2026-05-05 02:00 4.42988 100.64351 33895 ft 380 kts 337°
2026-05-05 02:01 4.47790 100.62224 33900 ft 379 kts 337°
2026-05-05 02:01 4.52602 100.60094 33903 ft 377 kts 337°
2026-05-05 02:02 4.57390 100.57976 33907 ft 375 kts 337°
2026-05-05 02:02 4.58969 100.57277 33910 ft 375 kts 337°